Location: Bergen
(60.3910°N, 5.3250°E)
Time: 08:28:32
(UTC+02:00)

ISS - Pass Details

Date: 29 March 2019
Orbit: 408 x 410 km, 51.6° (Epoch: 21 April)

Event Time Altitude Azimuth Distance (km) Brightness Sun altitude
Rises 21:39:45 0° 256° (WSW) 2,339 0.5 -16.8°
Reaches altitude 10° 21:42:25 10° 233° (SW) 1,476 -0.9 -17.1°
Enters shadow 21:43:56 15° 206° (SSW) 1,208 -1.6 -17.2°
